Buffalo, MN

2:18 AM CDT on July 27, 2017 (GMT -0500)
Buffalo

Weather History for KCFE - September, 2012

Change the Weather History Date:

Sunday, September 30, 2012

  Actual Average (KMIC) Record (KMIC)
Temperature  
Mean Temperature 60 °F -  
Max Temperature 76 °F 62 °F 82 °F (2002)
Min Temperature 43 °F 40 °F 32 °F (2003)
Degree Days  
Heating Degree Days 6    
Growing Degree Days 10 (Base 50)    
Moisture  
Dew Point 42 °F    
Average Humidity 56    
Maximum Humidity 88    
Minimum Humidity 26    
Precipitation  
Precipitation 0.00 in - - ()
Sea Level Pressure  
Sea Level Pressure 29.97 in    
Wind  
Wind Speed 1 mph (SE)    
Max Wind Speed 7 mph    
Max Gust Speed -    
Visibility 10 miles    
Events      
Averages and records for this station are not official NWS values.
T = Trace of Precipitation, MM = Missing Value Source: NWS Daily Summary

Daily Weather History Graph

Daily Weather History Graph

Search for Another Location

Airport or City:

Trip Planner

Search our weather history database for the weather conditions in past years. The results will help you decide how hot, cold, wet, or windy it might be!

Date:

Astronomy

Sep. 30, 2012 Rise Set
Actual Time 7:12 AM CDT 6:56 PM CDT
Civil Twilight 6:43 AM CDT 7:25 PM CDT
Nautical Twilight 6:09 AM CDT 8:00 PM CDT
Astronomical Twilight 5:34 AM CDT 8:34 PM CDT
Moon 6:55 PM CDT (9/30) 7:48 AM CDT (9/30)
Length of Visible Light 12h 42m
Length of Day
11h 43m
Full, 100% of the Moon is Illuminated
Sep 30
Full
Oct 8
Last Quarter
Oct 15
New
Oct 21
First Quarter
Oct 29
Full

Hourly Weather History & Observations

Time (CDT) Temp. Dew Point Humidity Pressure Visibility Wind Dir Wind Speed Gust Speed Precip Events Conditions
12:13 AM 50.0 °F 44.1 °F 80% 30.05 in 7.0 mi Calm Calm - N/A   Clear
12:34 AM 49.5 °F 43.5 °F 80% 30.04 in 10.0 mi Calm Calm - N/A   Clear
12:53 AM 49.6 °F 43.7 °F 80% 30.04 in 10.0 mi Calm Calm - N/A   Clear
1:13 AM 50.0 °F 43.2 °F 77% 30.04 in 10.0 mi Calm Calm - N/A   Clear
1:34 AM 51.4 °F 43.3 °F 74% 30.04 in 10.0 mi Calm Calm - N/A   Clear
1:53 AM 50.7 °F 43.0 °F 75% 30.04 in 10.0 mi Calm Calm - N/A   Clear
2:13 AM 50.5 °F 42.4 °F 74% 30.04 in 10.0 mi Calm Calm - N/A   Clear
2:34 AM 48.7 °F 42.3 °F 78% 30.03 in 10.0 mi Calm Calm - N/A   Clear
2:53 AM 48.4 °F 42.1 °F 79% 30.03 in 10.0 mi Calm Calm - N/A   Clear
3:13 AM 48.6 °F 41.9 °F 78% 30.02 in 10.0 mi Calm Calm - N/A   Clear
3:34 AM 48.9 °F 41.9 °F 77% 30.02 in 10.0 mi Calm Calm - N/A   Clear
3:53 AM 47.3 °F 41.2 °F 79% 30.03 in 7.0 mi Calm Calm - N/A   Clear
4:13 AM 46.4 °F 41.2 °F 82% 30.03 in 7.0 mi Calm Calm - N/A   Clear
4:34 AM 46.4 °F 41.5 °F 83% 30.03 in 10.0 mi Calm Calm - N/A   Clear
4:53 AM 46.4 °F 41.9 °F 84% 30.03 in 10.0 mi Calm Calm - N/A   Clear
5:13 AM 44.8 °F 41.4 °F 88% 30.02 in 10.0 mi Calm Calm - N/A   Clear
5:34 AM 45.5 °F 41.9 °F 87% 30.02 in 10.0 mi Calm Calm - N/A   Clear
5:53 AM 45.5 °F 41.7 °F 87% 30.02 in 10.0 mi Calm Calm - N/A   Clear
6:13 AM 45.5 °F 41.2 °F 85% 30.02 in 10.0 mi Calm Calm - N/A   Clear
6:34 AM 45.5 °F 41.0 °F 84% 30.02 in 10.0 mi Calm Calm - N/A   Clear
6:53 AM 44.6 °F 40.5 °F 85% 30.02 in 10.0 mi Calm Calm - N/A   Clear
7:13 AM 44.6 °F 41.0 °F 87% 30.01 in 10.0 mi Calm Calm - N/A   Clear
7:34 AM 43.7 °F 40.5 °F 88% 30.01 in 10.0 mi Calm Calm - N/A   Clear
7:53 AM 45.7 °F 41.5 °F 85% 30.02 in 10.0 mi Calm Calm - N/A   Clear
8:13 AM 47.5 °F 42.4 °F 83% 30.01 in 10.0 mi Calm Calm - N/A   Clear
8:34 AM 49.8 °F 43.9 °F 80% 30.01 in 10.0 mi Calm Calm - N/A   Clear
8:53 AM 52.5 °F 44.1 °F 73% 30.01 in 10.0 mi ENE 3.5 mph - N/A   Clear
9:13 AM 54.5 °F 43.3 °F 66% 30.02 in 10.0 mi ENE 4.6 mph - N/A   Clear
9:34 AM 56.5 °F 44.1 °F 63% 30.02 in 10.0 mi Calm Calm - N/A   Clear
9:53 AM 58.6 °F 44.4 °F 59% 30.01 in 10.0 mi Calm Calm - N/A   Clear
10:13 AM 61.5 °F 43.5 °F 52% 30.01 in 10.0 mi Calm Calm - N/A   Clear
10:34 AM 63.9 °F 44.1 °F 49% 30.01 in 10.0 mi Calm Calm - N/A   Clear
10:53 AM 65.5 °F 44.4 °F 46% 30.01 in 10.0 mi Calm Calm - N/A   Clear
11:13 AM 67.5 °F 43.7 °F 42% 30.00 in 10.0 mi Calm Calm - N/A   Clear
11:33 AM 69.3 °F 40.6 °F 35% 30.00 in 10.0 mi SSE 4.6 mph - N/A   Clear
11:53 AM 71.1 °F 40.8 °F 33% 29.99 in 10.0 mi SE 4.6 mph - N/A   Clear
12:14 PM 72.5 °F 39.4 °F 30% 29.99 in 10.0 mi SSE 5.8 mph - N/A   Clear
12:33 PM 73.4 °F 39.9 °F 30% 29.99 in 10.0 mi SSE 5.8 mph - N/A   Clear
12:53 PM 73.9 °F 40.1 °F 29% 29.98 in 10.0 mi ESE 3.5 mph - N/A   Clear
1:14 PM 75.2 °F 41.0 °F 29% 29.98 in 10.0 mi East 3.5 mph - N/A   Clear
1:33 PM 76.1 °F 39.9 °F 27% 29.97 in 10.0 mi ESE 6.9 mph - N/A   Clear
1:53 PM 76.1 °F 39.4 °F 27% 29.96 in 10.0 mi SSE 4.6 mph - N/A   Clear
2:14 PM 76.1 °F 38.8 °F 26% 29.95 in 10.0 mi SSE 3.5 mph - N/A   Clear
2:33 PM 76.1 °F 39.2 °F 26% 29.94 in 10.0 mi SSE 3.5 mph - N/A   Clear
3:13 PM 76.1 °F 41.0 °F 28% 29.94 in 10.0 mi SSE 4.6 mph - N/A   Clear
3:33 PM 75.2 °F 40.6 °F 29% 29.94 in 10.0 mi SE 3.5 mph - N/A   Clear
3:53 PM 74.5 °F 40.3 °F 29% 29.93 in 10.0 mi Calm Calm - N/A   Clear
4:13 PM 75.0 °F 40.8 °F 29% 29.93 in 10.0 mi Calm Calm - N/A   Clear
4:33 PM 75.2 °F 41.2 °F 29% 29.92 in 10.0 mi South 4.6 mph - N/A   Clear
4:53 PM 76.1 °F 41.9 °F 29% 29.92 in 10.0 mi SE 4.6 mph - N/A   Clear
5:13 PM 76.1 °F 41.9 °F 29% 29.91 in 10.0 mi SE 4.6 mph - N/A   Clear
5:33 PM 76.1 °F 42.1 °F 30% 29.91 in 10.0 mi Calm Calm - N/A   Clear
5:54 PM 74.3 °F 42.1 °F 31% 29.91 in 10.0 mi SE 4.6 mph - N/A   Clear
6:13 PM 72.5 °F 42.4 °F 34% 29.90 in 10.0 mi ESE 3.5 mph - N/A   Clear
6:33 PM 70.0 °F 43.0 °F 38% 29.90 in 10.0 mi Calm Calm - N/A   Clear
6:53 PM 67.3 °F 43.7 °F 42% 29.90 in 10.0 mi ESE 3.5 mph - N/A   Clear
7:13 PM 65.5 °F 43.9 °F 46% 29.90 in 10.0 mi East 4.6 mph - N/A   Clear
7:33 PM 64.4 °F 43.3 °F 46% 29.89 in 10.0 mi East 3.5 mph - N/A   Clear
7:53 PM 63.1 °F 43.7 °F 49% 29.89 in 10.0 mi Calm Calm - N/A   Clear
8:13 PM 62.4 °F 43.5 °F 50% 29.89 in 10.0 mi Calm Calm - N/A   Clear
8:33 PM 62.1 °F 43.0 °F 50% 29.89 in 10.0 mi Calm Calm - N/A   Clear
8:53 PM 63.3 °F 43.2 °F 48% 29.89 in 10.0 mi Calm Calm - N/A   Clear
9:13 PM 62.6 °F 43.0 °F 49% 29.89 in 10.0 mi Calm Calm - N/A   Clear
9:33 PM 62.2 °F 42.8 °F 49% 29.89 in 10.0 mi Calm Calm - N/A   Clear
9:53 PM 62.1 °F 42.8 °F 49% 29.89 in 10.0 mi Calm Calm - N/A   Clear
10:13 PM 61.5 °F 42.6 °F 50% 29.89 in 10.0 mi Calm Calm - N/A   Clear
10:33 PM 61.2 °F 42.1 °F 50% 29.89 in 10.0 mi Calm Calm - N/A   Clear
11:13 PM 58.5 °F 42.6 °F 56% 29.89 in 10.0 mi Calm Calm - N/A   Clear
11:34 PM 59.9 °F 42.1 °F 52% 29.88 in 10.0 mi Calm Calm - N/A   Clear
11:53 PM 60.3 °F 41.4 °F 50% 29.88 in 10.0 mi Calm Calm - N/A   Clear